Weather History for Cherokee, IA

Change the Weather History Date:

Thursday, August 23, 2012

  Actual Average Record
Temperature  
Mean Temperature 74 °F -  
Max Temperature 90 °F 83 °F 98 °F (1948)
Min Temperature 60 °F 58 °F 42 °F (1970)
Cooling Degree Days 10    
Growing Degree Days 24 (Base 50)    
Moisture  
Dew Point 59 °F    
Average Humidity 56    
Maximum Humidity 78    
Minimum Humidity 38    
Precipitation  
Precipitation 0.00 in - - ()
Sea Level Pressure  
Sea Level Pressure 29.88 in    
Wind  
Wind Speed 9 mph (South)    
Max Wind Speed 25 mph    
Max Gust Speed 32 mph    
Visibility 10 miles    
Events      
Averages and records for this station are not official NWS values.
T = Trace of Precipitation, MM = Missing Value Source: NWS Daily Summary

Daily Weather History Graph

Daily Weather History Graph

Search for Another Location

Airport:

Trip Planner

Search our weather history database for the weather conditions in past years. The results will help you decide how hot, cold, wet, or windy it might be!

Date:

Astronomy

Aug. 23, 2012 Rise Set
Actual Time 6:37 AM CDT 8:10 PM CDT
Civil Twilight 6:08 AM CDT 8:40 PM CDT
Nautical Twilight 5:32 AM CDT 9:16 PM CDT
Astronomical Twilight 4:53 AM CDT 9:54 PM CDT
Moon 1:37 PM CDT (8/23) 11:28 PM CDT (8/23)
Length of Visible Light 14h 32m
Length of Day
13h 32m
Waxing Crescent, 40% of the Moon is Illuminated
Aug 23
Waxing Crescent
Aug 24
First Quarter
Aug 31
Full
Sep 8
Last Quarter
Sep 15
New

Hourly Weather History & Observations

Time (CDT) Temp. Heat Index Dew Point Humidity Pressure Visibility Wind Dir Wind Speed Gust Speed Precip Events Conditions
12:15 AM 66.2 °F - 57.6 °F 74% 29.90 in 10.0 mi South 4.6 mph - N/A   Clear
12:35 AM 66.9 °F - 56.5 °F 69% 29.90 in 10.0 mi South 4.6 mph - N/A   Clear
12:55 AM 66.6 °F - 56.3 °F 69% 29.90 in 10.0 mi SSE 5.8 mph - N/A   Clear
1:15 AM 66.7 °F - 55.6 °F 67% 29.90 in 10.0 mi South 6.9 mph - N/A   Clear
1:35 AM 64.9 °F - 55.8 °F 72% 29.90 in 10.0 mi South 5.8 mph - N/A   Clear
1:55 AM 65.3 °F - 54.7 °F 68% 29.89 in 10.0 mi South 8.1 mph - N/A   Clear
2:15 AM 66.2 °F - 53.2 °F 63% 29.89 in 10.0 mi South 5.8 mph - N/A   Clear
2:35 AM 66.2 °F - 52.9 °F 62% 29.89 in 10.0 mi South 6.9 mph - N/A   Clear
2:55 AM 66.2 °F - 52.7 °F 62% 29.89 in 10.0 mi South 6.9 mph - N/A   Clear
3:15 AM 65.1 °F - 52.7 °F 64% 29.89 in 10.0 mi SSE 6.9 mph - N/A   Clear
3:35 AM 63.5 °F - 52.9 °F 68% 29.90 in 10.0 mi SSE 5.8 mph - N/A   Clear
3:55 AM 63.1 °F - 52.7 °F 69% 29.90 in 10.0 mi SSE 4.6 mph - N/A   Clear
4:15 AM 63.0 °F - 52.7 °F 69% 29.91 in 10.0 mi SSE 8.1 mph - N/A   Clear
4:35 AM 62.1 °F - 53.4 °F 73% 29.91 in 10.0 mi Calm Calm - N/A   Clear
4:55 AM 60.8 °F - 54.0 °F 78% 29.91 in 10.0 mi Calm Calm - N/A   Clear
5:15 AM 61.7 °F - 53.6 °F 75% 29.92 in 10.0 mi SSE 5.8 mph - N/A   Clear
5:35 AM 63.0 °F - 53.4 °F 71% 29.92 in 10.0 mi SSE 5.8 mph - N/A   Clear
5:55 AM 62.4 °F - 53.6 °F 73% 29.92 in 10.0 mi SSE 5.8 mph - N/A   Clear
6:15 AM 61.7 °F - 53.6 °F 75% 29.92 in 10.0 mi Calm Calm - N/A   Clear
6:35 AM 61.3 °F - 54.3 °F 78% 29.92 in 10.0 mi South 5.8 mph - N/A   Clear
6:55 AM 65.1 °F - 53.2 °F 65% 29.92 in 10.0 mi South 6.9 mph - N/A   Clear
7:15 AM 64.2 °F - 53.8 °F 69% 29.92 in 10.0 mi South 5.8 mph - N/A   Clear
7:35 AM 65.5 °F - 54.0 °F 66% 29.92 in 10.0 mi South 8.1 mph - N/A   Clear
7:55 AM 67.3 °F - 54.3 °F 63% 29.92 in 10.0 mi South 8.1 mph - N/A   Clear
8:15 AM 69.8 °F - 54.0 °F 57% 29.92 in 10.0 mi South 10.4 mph - N/A   Clear
8:35 AM 71.6 °F - 54.5 °F 55% 29.92 in 10.0 mi South 10.4 mph - N/A   Clear
8:55 AM 73.4 °F - 56.1 °F 55% 29.91 in 10.0 mi South 11.5 mph 17.3 mph N/A   Clear
9:15 AM 75.0 °F - 57.0 °F 53% 29.91 in 10.0 mi South 15.0 mph 20.7 mph N/A   Clear
9:35 AM 76.1 °F - 57.9 °F 53% 29.91 in 10.0 mi South 16.1 mph 19.6 mph N/A   Clear
9:55 AM 77.5 °F - 59.0 °F 53% 29.91 in 10.0 mi South 17.3 mph 21.9 mph N/A   Clear
10:15 AM 79.0 °F - 60.1 °F 52% 29.90 in 10.0 mi South 17.3 mph 20.7 mph N/A   Clear
10:35 AM 80.2 °F 81.2 °F 61.3 °F 52% 29.91 in 10.0 mi South 19.6 mph 23.0 mph N/A   Clear
10:55 AM 81.5 °F 82.4 °F 61.9 °F 51% 29.91 in 10.0 mi South 18.4 mph 23.0 mph N/A   Clear
11:15 AM 82.9 °F 83.8 °F 62.4 °F 50% 29.90 in 10.0 mi SSW 18.4 mph 21.9 mph N/A   Scattered Clouds
11:35 AM 84.2 °F 85.2 °F 63.1 °F 49% 29.89 in 10.0 mi SSW 17.3 mph 24.2 mph N/A   Mostly Cloudy
11:55 AM 85.3 °F 86.4 °F 63.3 °F 48% 29.88 in 10.0 mi SSW 20.7 mph 26.5 mph N/A   Scattered Clouds
12:15 PM 86.9 °F 87.8 °F 63.3 °F 45% 29.87 in 10.0 mi South 18.4 mph 26.5 mph N/A   Scattered Clouds
12:35 PM 87.1 °F 87.8 °F 63.0 °F 44% 29.87 in 10.0 mi South 21.9 mph 26.5 mph N/A   Scattered Clouds
12:55 PM 86.9 °F 87.5 °F 62.8 °F 44% 29.87 in 10.0 mi SSW 25.3 mph 31.1 mph N/A   Scattered Clouds
1:15 PM 87.3 °F 87.7 °F 62.4 °F 43% 29.87 in 10.0 mi SSW 20.7 mph 31.1 mph N/A   Clear
1:35 PM 88.5 °F 88.9 °F 62.2 °F 41% 29.86 in 10.0 mi SSW 21.9 mph 31.1 mph N/A   Scattered Clouds
1:55 PM 88.9 °F 89.4 °F 62.2 °F 41% 29.86 in 10.0 mi SSW 21.9 mph 32.2 mph N/A   Clear
2:35 PM 89.4 °F 89.8 °F 61.9 °F 40% 29.85 in 10.0 mi South 21.9 mph 29.9 mph N/A   Clear
2:55 PM 89.6 °F 89.8 °F 61.5 °F 39% 29.85 in 10.0 mi SSW 23.0 mph 28.8 mph N/A   Scattered Clouds
3:15 PM 89.1 °F 89.3 °F 61.9 °F 40% 29.84 in 10.0 mi South 21.9 mph 29.9 mph N/A   Scattered Clouds
3:35 PM 89.2 °F 89.6 °F 62.1 °F 40% 29.84 in 10.0 mi SSW 19.6 mph 25.3 mph N/A   Mostly Cloudy
3:55 PM 89.8 °F 89.7 °F 61.3 °F 38% 29.84 in 10.0 mi SSW 16.1 mph 29.9 mph N/A   Scattered Clouds
4:15 PM 88.9 °F 88.8 °F 61.0 °F 39% 29.85 in 10.0 mi SSW 18.4 mph 29.9 mph N/A   Clear
4:35 PM 88.7 °F 88.6 °F 60.8 °F 39% 29.85 in 10.0 mi South 18.4 mph 29.9 mph N/A   Clear
4:55 PM 88.3 °F 88.1 °F 60.8 °F 39% 29.85 in 10.0 mi SSW 17.3 mph 26.5 mph N/A   Scattered Clouds
5:15 PM 88.5 °F 88.6 °F 61.3 °F 40% 29.85 in 10.0 mi SSW 18.4 mph 24.2 mph N/A   Mostly Cloudy
5:35 PM 87.3 °F 87.0 °F 60.4 °F 40% 29.85 in 10.0 mi SSW 13.8 mph 25.3 mph N/A   Scattered Clouds
5:55 PM 87.4 °F 87.2 °F 60.6 °F 40% 29.85 in 10.0 mi SSW 16.1 mph 21.9 mph N/A   Clear
6:15 PM 86.2 °F 85.9 °F 60.1 °F 41% 29.85 in 10.0 mi SSW 15.0 mph 21.9 mph N/A   Clear
6:35 PM 85.1 °F 85.2 °F 60.6 °F 44% 29.84 in 10.0 mi SSW 10.4 mph - N/A   Clear
6:55 PM 84.2 °F 84.4 °F 60.8 °F 45% 29.83 in 10.0 mi South 13.8 mph - N/A   Clear
7:15 PM 83.8 °F 84.0 °F 60.4 °F 45% 29.83 in 10.0 mi South 10.4 mph - N/A   Clear
7:35 PM 82.9 °F 83.2 °F 60.4 °F 46% 29.84 in 10.0 mi SSW 10.4 mph 16.1 mph N/A   Clear
7:55 PM 82.2 °F 82.7 °F 60.6 °F 48% 29.84 in 10.0 mi South 8.1 mph - N/A   Clear
8:15 PM 80.8 °F 81.6 °F 61.3 °F 51% 29.84 in 10.0 mi South 8.1 mph - N/A   Clear
8:35 PM 79.9 °F - 61.7 °F 54% 29.84 in 10.0 mi South 8.1 mph - N/A   Clear
8:55 PM 79.0 °F - 61.7 °F 55% 29.85 in 10.0 mi South 5.8 mph - N/A   Clear
9:15 PM 77.5 °F - 61.9 °F 58% 29.86 in 10.0 mi South 6.9 mph - N/A   Clear
9:35 PM 77.2 °F - 61.9 °F 59% 29.86 in 10.0 mi South 8.1 mph - N/A   Clear
9:55 PM 75.4 °F - 62.6 °F 64% 29.87 in 10.0 mi South 4.6 mph - N/A   Clear
10:15 PM 75.0 °F - 62.4 °F 65% 29.86 in 10.0 mi SSE 4.6 mph - N/A   Clear
10:35 PM 73.8 °F - 62.6 °F 68% 29.86 in 10.0 mi South 4.6 mph - N/A   Clear
10:55 PM 72.7 °F - 63.3 °F 72% 29.84 in 10.0 mi South 10.4 mph - N/A   Clear
11:15 PM 73.4 °F - 62.1 °F 68% 29.84 in 10.0 mi South 8.1 mph - N/A   Clear
11:35 PM 73.4 °F - 61.7 °F 67% 29.84 in 10.0 mi South 6.9 mph - N/A   Clear
11:55 PM 70.7 °F - 63.0 °F 76% 29.84 in 10.0 mi SSW 4.6 mph - N/A   Clear